This demonstration page uses our WeatherBlox Daily Observations layout. Learn more.

Left ArrowRight Arrow

36.17497, -115.13722

Hourly Observations for March 9, 2021

Temp ( °F °C ) Dew Point ( °F °C ) Humidity (%) Winds ( mph kmh ) Pressure ( in mb ) Visibility ( mi km ) Precip ( " mm )
12:53 am 00:53 Clear 57 13.9 11 -11.7 16 16 SSW 21 33 29.88 1012 10 16 0.00 0.00
1:53 am 01:53 Clear 56 13.3 12 -11.1 17 17 SW 17 28 29.88 1012 10 16 0.00 0.00
2:53 am 02:53 Clear 54 12.2 13 -10.6 19 19 S 9 15 29.87 1012 10 16 0.00 0.00
3:53 am 03:53 Clear 51 10.6 13 -10.6 22 22 WNW 9 15 29.89 1012 10 16 0.00 0.00
4:53 am 04:53 Clear 49 9.4 14 -10 25 25 NW 7 11 29.92 1013 10 16 0.00 0.00
5:53 am 05:53 Clear 49 9.4 11 -11.7 21 21 Calm 29.93 1014 10 16 0.00 0.00
6:53 am 06:53 Sunny 50 10 12 -11.1 22 22 Calm 29.93 1014 10 16 0.00 0.00
7:53 am 07:53 Sunny 53 11.7 19 -7.2 26 26 SSE 6 9 29.94 1014 10 16 0.00 0.00
8:53 am 08:53 Sunny 55 12.8 18 -7.8 23 23 SSW 5 7 29.93 1014 10 16 0.00 0.00
9:53 am 09:53 Sunny 57 13.9 17 -8.3 21 21 Calm 29.93 1013 10 16 0.00 0.00
10:53 am 10:53 Sunny 57 13.9 15 -9.4 19 19 Calm 29.93 1013 10 16 0.00 0.00
11:53 am 11:53 Sunny 60 15.6 16 -8.9 18 18 Calm 29.89 1012 10 16 0.00 0.00
12:53 pm 12:53 Sunny 62 16.7 15 -9.4 16 16 SW 10 17 29.86 1011 10 16 0.00 0.00
1:53 pm 13:53 Sunny 63 17.2 17 -8.3 17 17 SSW 20 31 29.83 1010 10 16 0.00 0.00
2:53 pm 14:53 Sunny 63 17.2 17 -8.3 17 17 SW 29 46 29.82 1010 10 16 0.00 0.00
3:53 pm 15:53 Sunny 63 17.2 16 -8.9 16 16 W 26 43 29.81 1010 10 16 0.00 0.00
4:53 pm 16:53 Sunny 62 16.7 16 -8.9 17 17 WSW 22 35 29.83 1010 10 16 0.00 0.00
5:53 pm 17:53 Clear 60 15.6 17 -8.3 19 19 WSW 16 26 29.85 1011 10 16 0.00 0.00
6:53 pm 18:53 Clear 59 15 14 -10 17 17 WSW 24 39 29.86 1011 10 16 0.00 0.00
7:53 pm 19:53 Clear 57 13.9 14 -10 18 18 WSW 13 20 29.86 1011 10 16 0.00 0.00
8:53 pm 20:53 Clear 55 12.8 14 -10 20 20 W 15 24 29.86 1011 10 16 0.00 0.00
9:53 pm 21:53 Clear 54 12.2 15 -9.4 21 21 SSW 12 19 29.88 1012 10 16 0.00 0.00
10:53 pm 22:53 Clear 54 12.2 15 -9.4 21 21 WSW 14 22 29.90 1012 10 16 0.00 0.00
11:53 pm 23:53 Clear 53 11.7 14 -10 21 21 WSW 9 15 29.90 1013 10 16 0.00 0.00

Powered by AerisWeather